GW0815 Weather Reports


time (UTC)temp
C
wind
direction
speed
KPH
gust
KPH
rain 1hr
cm
rain 24hr
cm
rain mn
cm
humidity
%
barometer
mb
20260503223047 25 21 8.0 22.5 0.00 0.00 0.00 36 1011.0
20260503221551 24 13 8.0 17.7 0.00 0.00 0.00 36 1011.1
20260503220044 23 349 12.9 19.3 0.00 0.00 0.00 37 1011.3
20260503214541 23 17 9.7 19.3 0.00 0.00 0.00 38 1011.5
20260503213043 23 338 8.0 17.7 0.00 0.00 0.00 42 1011.6
20260503211539 23 328 9.7 24.1 0.00 0.00 0.00 42 1011.7
20260503210034 23 346 8.0 17.7 0.00 0.00 0.00 42 1011.8
20260503204533 22 306 11.3 19.3 0.00 0.00 0.00 42 1012.0
20260503203029 22 337 6.4 22.5 0.00 0.00 0.00 45 1012.2
20260503201527 22 360 4.8 19.3 0.00 0.00 0.00 47 1012.3
20260503200024 21 338 6.4 22.5 0.00 0.00 0.00 48 1012.5
20260503194521 21 355 6.4 19.3 0.00 0.00 0.00 50 1012.8
20260503193034 20 341 4.8 17.7 0.00 0.00 0.00 52 1012.9
20260503191516 20 15 4.8 14.5 0.00 0.00 0.00 53 1013.1
20260503190024 19 49 3.2 19.3 0.00 0.00 0.00 54 1013.2
20260503184511 19 355 9.7 20.9 0.00 0.00 0.00 54 1013.3
20260503183008 18 69 6.4 16.1 0.00 0.00 0.00 59 1013.5
20260503181506 18 334 6.4 16.1 0.00 0.00 0.00 60 1013.6
20260503180005 17 44 3.2 16.1 0.00 0.00 0.00 59 1013.7
20260503174503 17 16 4.8 16.1 0.00 0.00 0.00 59 1013.7
20260503173005 17 360 9.7 19.3 0.00 0.00 0.00 60 1013.7
20260503171501 17 360 4.8 12.9 0.00 0.00 0.00 62 1013.8
20260503081534 16 82 3.2 8.0 0.00 0.00 0.00 54 1014.3
20260503071515 16 62 4.8 14.5 0.00 0.00 0.00 51 1014.2
20260503054509 16 51 4.8 12.9 0.00 0.00 0.00 55 1014.0
20260503053003 17 92 4.8 11.3 0.00 0.00 0.00 57 1014.1
20260503051501 17 51 4.8 11.3 0.00 0.00 0.00 58 1014.1
20260503050001 17 66 3.2 11.3 0.00 0.00 0.00 58 1013.9
20260503044600 17 32 4.8 11.3 0.00 0.00 0.00 59 1013.9
20260503043110 17 40 4.8 11.3 0.00 0.00 0.00 59 1013.7
20260503041559 17 44 3.2 9.7 0.00 0.00 0.00 57 1013.6
20260503034610 17 30 4.8 12.9 0.00 0.00 0.00 57 1013.2
20260503033058 17 30 4.8 17.7 0.00 0.00 0.00 57 1013.0
20260503031556 18 307 6.4 27.4 0.00 0.00 0.00 55 1012.9
20260503030055 18 360 12.9 27.4 0.00 0.00 0.00 54 1012.8
20260503024554 19 30 4.8 17.7 0.00 0.00 0.00 51 1012.7
20260503023053 20 5 12.9 27.4 0.00 0.00 0.00 49 1012.6
20260503021554 20 5 12.9 22.5 0.00 0.00 0.00 48 1012.6
20260503020056 21 336 12.9 27.4 0.00 0.00 0.00 47 1012.6
20260503014604 21 332 14.5 30.6 0.00 0.00 0.00 46 1012.6
20260503013051 21 355 16.1 32.2 0.00 0.00 0.00 46 1012.6
20260503011550 21 17 14.5 25.7 0.00 0.00 0.00 44 1012.7
20260503010048 21 360 16.1 25.7 0.00 0.00 0.00 46 1012.8
20260503004547 21 351 16.1 25.7 0.00 0.00 0.00 46 1013.0
20260503003052 21 5 9.7 24.1 0.00 0.00 0.00 47 1013.0
20260503001602 21 343 14.5 27.4 0.00 0.00 0.00 48 1013.0
20260503000047 21 339 17.7 29.0 0.00 0.00 0.00 47 1013.2
20260502234544 21 344 16.1 29.0 0.00 0.00 0.00 47 1013.3
20260502233037 21 337 17.7 33.8 0.00 0.00 0.00 46 1013.5
20260502231534 21 26 17.7 32.2 0.00 0.00 0.00 44 1013.7
20260502230035 21 345 17.7 33.8 0.00 0.00 0.00 46 1013.9
20260502224528 20 355 14.5 29.0 0.00 0.00 0.00 48 1014.2